This demonstration page uses our WeatherBlox Daily Observations layout. Learn more.

Left ArrowRight Arrow

39.51506, -84.39828

Hourly Observations for September 12, 2015

Temp ( °F °C ) Dew Point ( °F °C ) Humidity (%) Winds ( mph kmh ) Pressure ( in mb ) Visibility ( mi km ) Precip ( " mm )
12:15 am 00:15 Cloudy with Rain 61 16 57 13.8 87 87 N 6 9 29.88 1012 4 6.43736 0 0
12:35 am 00:35 Cloudy with Drizzle 61 16 57 14 88 88 N 7 11 29.88 1012 5 8.0467 0 0
12:55 am 00:55 Cloudy with Drizzle 60 15.8 56 13.6 87 87 N 7 11 29.88 1012 7 11.26538 0 0
1:15 am 01:15 Cloudy 60 15.6 56 13.3 86 86 N 7 11 29.88 1012 10 16.0934 0 0
1:35 am 01:35 Cloudy with Drizzle 60 15.3 55 13 86 86 NNE 9 15 29.88 1012 10 16.0934 0 0
1:55 am 01:55 Cloudy 60 15.3 55 13 86 86 NNE 7 11 29.88 1012 10 16.0934 0 0
2:15 am 02:15 Cloudy 60 15.3 55 13 86 86 N 3 6 29.88 1012 10 16.0934 0 0
2:35 am 02:35 Cloudy 60 15.3 56 13.1 87 87 Calm 29.88 1012 10 16.0934 0 0
2:55 am 02:55 Cloudy 60 15.3 56 13.1 87 87 N 7 11 29.88 1012 10 16.0934 0 0
3:15 am 03:15 Cloudy 60 15.5 56 13.1 86 86 N 6 9 29.88 1012 10 16.0934 0 0
3:35 am 03:35 Cloudy 60 15.4 55 13 86 86 N 6 9 29.88 1012 10 16.0934 0 0
3:55 am 03:55 Cloudy 60 15.3 55 13 86 86 N 5 7 29.88 1012 10 16.0934 0 0
4:15 am 04:15 Cloudy 60 15.3 55 12.8 85 85 N 7 11 29.88 1012 10 16.0934 0 0
4:35 am 04:35 Cloudy 60 15.3 55 12.8 85 85 N 5 7 29.88 1012 10 16.0934 0 0
4:55 am 04:55 Cloudy 60 15.3 55 13 86 86 N 5 7 29.88 1012 10 16.0934 0 0
5:15 am 05:15 Cloudy 60 15.3 55 13 86 86 N 3 6 29.88 1012 10 16.0934 0 0
5:35 am 05:35 Cloudy 60 15.3 55 13 86 86 N 6 9 29.88 1012 10 16.0934 0 0
5:55 am 05:55 Cloudy 60 15.3 55 13 86 86 NNW 7 11 29.88 1012 10 16.0934 0 0
6:15 am 06:15 Cloudy 60 15.3 55 13 86 86 N 6 9 29.88 1012 10 16.0934 0 0
6:35 am 06:35 Cloudy 60 15.3 55 12.6 84 84 N 9 15 29.88 1012 10 16.0934 0 0
6:55 am 06:55 Cloudy 60 15.3 55 12.6 84 84 N 9 15 29.88 1012 10 16.0934 0 0
7:15 am 07:15 Mostly Cloudy 59 14.9 54 12.3 85 85 N 7 11 29.88 1012 10 16.0934 0 0
7:35 am 07:35 Mostly Cloudy 59 15.2 55 12.6 85 85 NNW 6 9 29.88 1012 10 16.0934 0 0
7:55 am 07:55 Cloudy 58 14.3 53 11.8 85 85 NNW 6 9 29.91 1013 10 16.0934 0 0
8:15 am 08:15 Mostly Cloudy 57 13.8 52 11.3 85 85 N 6 9 29.94 1014 10 16.0934 0 0
8:35 am 08:35 Cloudy 57 13.8 52 11.3 85 85 NNW 7 11 29.94 1014 10 16.0934 0 0
8:55 am 08:55 Cloudy 58 14.2 53 11.6 84 84 NNW 5 7 29.94 1014 10 16.0934 0 0
9:15 am 09:15 Cloudy 60 15.3 55 12.5 84 84 N 7 11 29.91 1013 10 16.0934 0 0
9:35 am 09:35 Cloudy 60 15.3 54 12.3 82 82 N 6 9 29.91 1013 10 16.0934 0 0
9:55 am 09:55 Cloudy 60 15.3 54 12.1 81 81 Calm 29.91 1013 10 16.0934 0 0
10:15 am 10:15 Cloudy 61 16.2 54 12.3 78 78 NNW 8 13 29.91 1013 10 16.0934 0 0
10:35 am 10:35 Cloudy 61 16 53 11.8 76 76 N 9 15 29.94 1014 10 16.0934 0 0
10:55 am 10:55 Cloudy 62 16.6 53 11.8 73 73 N 5 7 29.94 1014 10 16.0934 0 0
11:15 am 11:15 Cloudy 61 16 53 11.5 75 75 NNW 8 13 29.94 1014 10 16.0934 0 0
11:35 am 11:35 Cloudy 62 16.6 54 12.2 75 75 N 6 9 29.94 1014 10 16.0934 0 0
11:55 am 11:55 Cloudy 62 16.6 53 11.6 73 73 NNW 14 22 29.94 1014 10 16.0934 0 0
12:15 pm 12:15 Cloudy 64 17.6 53 11.9 69 69 N 9 15 29.91 1013 10 16.0934 0 0
12:35 pm 12:35 Cloudy 63 17.3 53 11.5 69 69 N 8 13 29.91 1013 10 16.0934 0 0
12:55 pm 12:55 Cloudy with Light Rain 64 17.6 52 11.1 66 66 N 10 17 29.91 1013 10 16.0934 0 0
1:15 pm 13:15 Cloudy 65 18.2 52 11.2 64 64 N 9 15 29.91 1013 10 16.0934 0 0
1:35 pm 13:35 Cloudy 65 18.2 51 10.7 62 62 N 10 17 29.91 1013 10 16.0934 0 0
1:55 pm 13:55 Cloudy 67 19.3 52 11.3 60 60 NW 10 17 29.91 1013 10 16.0934 0 0
2:15 pm 14:15 Cloudy 67 19.5 51 10.8 57 57 N 7 11 29.91 1013 10 16.0934 0 0
2:35 pm 14:35 Cloudy 67 19.5 50 10.1 55 55 NNW 10 17 29.91 1013 10 16.0934 0 0
2:55 pm 14:55 Mostly Cloudy 69 20.8 51 10.4 52 52 NNW 7 11 29.88 1012 10 16.0934 0 0
3:15 pm 15:15 Cloudy 67 19.4 50 10 55 55 N 9 15 29.88 1012 10 16.0934 0 0
3:35 pm 15:35 Cloudy with Light Rain 63 17.1 50 9.9 63 63 NNW 14 22 29.88 1012 10 16.0934 0 0
3:55 pm 15:55 Cloudy 64 17.6 50 10.1 62 62 N 8 13 29.88 1012 10 16.0934 0 0
4:15 pm 16:15 Mostly Cloudy 62 16.8 48 9.1 61 61 NNW 15 24 29.88 1012 10 16.0934 0 0
4:35 pm 16:35 Cloudy 60 15.8 49 9.5 66 66 N 12 19 29.88 1012 10 16.0934 0 0
4:55 pm 16:55 Cloudy 61 16 47 8.4 61 61 N 8 13 29.88 1012 10 16.0934 0 0
5:15 pm 17:15 Cloudy 62 16.6 48 8.8 60 60 NNW 3 6 29.88 1012 10 16.0934 0 0
5:35 pm 17:35 Cloudy 63 17 48 8.9 59 59 NNW 5 7 29.88 1012 10 16.0934 0 0
5:55 pm 17:55 Mostly Cloudy 63 17.1 49 9.7 62 62 WNW 6 9 29.88 1012 10 16.0934 0 0
6:15 pm 18:15 Mostly Cloudy 63 17 47 8.6 58 58 NW 6 9 29.88 1012 10 16.0934 0 0
6:35 pm 18:35 Mostly Cloudy 62 16.8 47 8.2 57 57 NNW 6 9 29.88 1012 10 16.0934 0 0
6:55 pm 18:55 Cloudy 62 16.6 46 8 57 57 NNW 6 9 29.88 1012 10 16.0934 0 0
7:15 pm 19:15 Cloudy 62 16.6 47 8.2 58 58 Calm 29.88 1012 10 16.0934 0 0
7:35 pm 19:35 Cloudy 62 16.4 48 8.7 61 61 NNW 5 7 29.88 1012 10 16.0934 0 0
7:55 pm 19:55 Mostly Cloudy 60 15.3 48 8.9 66 66 NW 3 6 29.88 1012 10 16.0934 0 0
8:15 pm 20:15 Partly Cloudy 60 15.3 50 9.8 70 70 Calm 29.88 1012 10 16.0934 0 0
8:35 pm 20:35 Mostly Cloudy 60 15.3 51 10.6 74 74 Calm 29.91 1013 10 16.0934 0 0
8:55 pm 20:55 Partly Cloudy 57 14.1 48 9.1 72 72 NNW 5 7 29.94 1014 10 16.0934 0 0
9:15 pm 21:15 Clear 57 13.8 48 8.7 72 72 NNW 5 7 29.94 1014 10 16.0934 0 0
9:35 pm 21:35 Partly Cloudy 57 13.8 47 8.4 70 70 NNW 5 7 29.94 1014 10 16.0934 0 0
9:55 pm 21:55 Partly Cloudy 57 13.8 47 8.3 70 70 N 7 11 29.97 1015 10 16.0934 0 0
10:15 pm 22:15 Partly Cloudy 57 13.8 48 8.9 73 73 N 8 13 29.97 1015 10 16.0934 0 0
10:35 pm 22:35 Mostly Cloudy 57 13.8 48 9.1 73 73 N 9 15 29.97 1015 10 16.0934 0 0
10:55 pm 22:55 Partly Cloudy 57 13.8 49 9.2 74 74 N 7 11 29.97 1015 10 16.0934 0 0
11:15 pm 23:15 Clear 57 13.8 49 9.2 74 74 N 7 11 29.97 1015 10 16.0934 0 0
11:35 pm 23:35 Clear 55 12.5 48 8.7 78 78 NNW 5 7 29.97 1015 10 16.0934 0 0
11:55 pm 23:55 Clear 55 12.5 48 9 79 79 NNW 5 7 29.97 1015 10 16.0934 0 0

Powered by AerisWeather